Location: Bogis-Bossey
(46.3500°N, 6.1667°E)
Time: 00:00:39
(UTC+00:00)

USA 238 DEB - Pass Details

Date: 06 March 2024
Orbit: 948 x 1263 km, 63.4° (Epoch: 09 April)

Event Time Altitude Azimuth Distance (km) Brightness Sun altitude
Exits shadow 02:47:57 55° 1° (N) 1,229 4.0 -33.5°
Drops below altitude 10° 02:53:33 10° 36° (NE) 2,924 6.7 -32.7°
Sets 02:56:21 0° 40° (NE) 3,932 7.6 -32.3°
